Погода в Свободном

Россия / Свердловская область     58°02′13″N   60°23′20″E
темп.,
°C
ветер,
м/с
пор.,
м/с
влажн.,
%
обл.,
%
осадки,
мм/ч
давл.,
гПа
погр.,
м
24 сентября, пт
пт2423:00+4ююз228544 0.0 102937
02:00+2ююз248767 0.0 102867
05:00+2ююз24845 0.0 102863
08:00+3ю23768 0.0 102786
11:00+10ююз23507 0.0 1026440
14:00+14юз2344100 0.0 1025930
17:00+13ююз1155100 0.0 102526
20:00+7ююз227531 0.0 102510
25 сентября, сб
сб2523:00+6ю228111 0.0 102511
02:00+5ююв118226 0.0 102510
05:00+4в2283100 0.0 102523
08:00+4в25745 0.0 1024117
11:00+11вюв364512 0.0 1022529
14:00+14юв463628 0.0 10211022
17:00+13вюв4844100 0.0 1021914
20:00+8вюв4126287 0.0 1021334
26 сентября, вс
вс2623:00+7вюв4136983 0.0 1022366
02:00+6вюв4137297 0.0 1022419
05:00+5вюв41283100 0.0 1022442
08:00+5вюв51281100 0.0 1023461
11:00+7вюв51066100 0.0 1023633
14:00+9вюв695599 0.0 10231061
17:00+8вюв5955100 0.0 10241042
20:00+6в51153100 0.0 1024850
27 сентября, пн
пн2723:00+4вюв51256100 0.0 1025787
02:00+3в51161100 0.0 1025697
05:00+1в51276100 0.0 1026577
08:000в5138189 0.0 1027616
11:00+4в610585 0.0 1027960
14:00+7в69475 0.0 10271412
17:00+7всв595159 0.0 10261521
20:00+3всв411659 0.0 1028620
28 сентября, вт
вт2823:00+1св411795 0.0 1028440
02:00−1св39899 0.0 1029252
05:00−3ссв279748 0.0 1029156
08:00−1ссв3887100 0.0 1029241
11:00+2св4767100 0.0 1028789
14:00+4ссв4652100 0.0 10271451
17:00+3ссв3665100 0.0 10271031
20:00+2ссз2680100 0.1 1027252